{"data":{"norad_id":62636,"epoch":"2026-05-25T04:35:51.328320Z","epoch_age_seconds":58695,"freshness":"FRESH","line1":"1 62636U 25009AD  26145.19156630  .00096774  00000+0  18123-2 0  9997","line2":"2 62636  97.3880 229.0138 0001742 143.4896 216.6474 15.48334949 75556","mean_motion":15.48334949,"eccentricity":0.0001742,"inclination_deg":97.388,"raan_deg":229.0138,"arg_perigee_deg":143.4896,"mean_anomaly_deg":216.6474,"bstar":0.0018123,"rev_number":7555,"period_min":93.003132231177,"perigee_km":420.41206367467,"apogee_km":422.78109085299,"semimajor_km":6799.7335772638,"source":"CELESTRAK","updated_at":"2026-05-25T13:38:13.338039Z"}}